QPF
0.01 0.01 0.01 0.02 0.02 0.02 0.01 0.02 0.01 0.01 0.02 0.02 0.03 0.03 0.05 0.06 0.06 0.05 0.05 0.08 0.09 0.08 0.08 0.07 0.06 0.04 0.03 0.03 0.03 0.03 0.03 0.03 0.03 0.02 0.01 0.01 0.03 0.04 0.05 0.05 0.05 0.05 0.05
0.01 0.01 0.01 0.01 0.02 0.02 0.01 0.02 0.03 0.03 0.02 0.02 0.03 0.02 0.03 0.04 0.05 0.05 0.06 0.07 0.08 0.08 0.08 0.08 0.07 0.06 0.05 0.04 0.04 0.04 0.03 0.03 0.03 0.03 0.02 0.02 0.02 0.03 0.03 0.04 0.04 0.04 0.05
0.01 0.01 0.01 0.01 0.01 0.01 0.02 0.02 0.02 0.04 0.03 0.02 0.02 0.02 0.02 0.03 0.03 0.03 0.04 0.04 0.05 0.06 0.07 0.08 0.08 0.07 0.07 0.06 0.06 0.05 0.04 0.04 0.03 0.03 0.03 0.04 0.03 0.03 0.03 0.03 0.03 0.03 0.03
0.01 0.01 0.01 0.01 0.01 0.01 0.01 0.01 0.01 0.01 0.01 0.01 0.01 0.02 0.02 0.02 0.02 0.02 0.02 0.02 0.03 0.03 0.04 0.05 0.06 0.07 0.06 0.06 0.06 0.06 0.05 0.06 0.05 0.04 0.04 0.04 0.03 0.03 0.03 0.03 0.03 0.03 0.03
0.01 0.01 0.01 0.01 0.01 0.01 0.02 0.01 0.01 0.01 0.02 0.01 0.01 0.01 0.01 0.01 0.02 0.02 0.02 0.02 0.02 0.03 0.03 0.03 0.03 0.05 0.06 0.06 0.06 0.06 0.07 0.08 0.07 0.06 0.05 0.04 0.04 0.03 0.03 0.03 0.03 0.03 0.03
0.02 0.02 0.02 0.01 0.01 0.01 0.01 0.01 0.02 0.01 0.01 0.01 0.01 0.00 0.00 0.01 0.02 0.03 0.02 0.03 0.03 0.03 0.03 0.03 0.03 0.03 0.04 0.05 0.05 0.05 0.06 0.08 0.09 0.08 0.07 0.05 0.04 0.03 0.03 0.03 0.03 0.03 0.03
0.01 0.02 0.02 0.02 0.01 0.00 0.01 0.01 0.02 0.02 0.01 0.01 0.01 0.00 0.01 0.01 0.01 0.02 0.02 0.02 0.02 0.03 0.04 0.04 0.03 0.03 0.04 0.04 0.05 0.05 0.05 0.06 0.07 0.08 0.07 0.06 0.04 0.04 0.04 0.04 0.03 0.03 0.02
0.00 0.01 0.01 0.02 0.01 0.01 0.01 0.01 0.01 0.01 0.01 0.01 0.01 0.01 0.01 0.01 0.01 0.01 0.02 0.01 0.02 0.02 0.03 0.03 0.03 0.02 0.03 0.04 0.04 0.04 0.04 0.04 0.06 0.06 0.06 0.06 0.06 0.05 0.04 0.05 0.05 0.05 0.03
0.00 0.00 0.01 0.02 0.02 0.01 0.01 0.01 0.01 0.01 0.01 0.01 0.01 0.01 0.01 0.01 0.02 0.01 0.02 0.02 0.02 0.02 0.02 0.02 0.02 0.02 0.03 0.03 0.04 0.04 0.03 0.04 0.05 0.06 0.07 0.07 0.08 0.07 0.06 0.07 0.07 0.08 0.06
0.01 0.01 0.01 0.02 0.02 0.02 0.02 0.02 0.01 0.01 0.01 0.01 0.01 0.02 0.02 0.01 0.02 0.02 0.02 0.03 0.02 0.02 0.02 0.02 0.02 0.02 0.03 0.03 0.03 0.03 0.03 0.03 0.03 0.04 0.05 0.06 0.07 0.07 0.07 0.07 0.06 0.06 0.05
0.01 0.02 0.02 0.02 0.02 0.02 0.02 0.02 0.02 0.02 0.01 0.01 0.01 0.02 0.03 0.02 0.02 0.03 0.03 0.03 0.03 0.03 0.03 0.03 0.03 0.03 0.03 0.03 0.03 0.03 0.03 0.02 0.02 0.03 0.04 0.04 0.05 0.05 0.04 0.04 0.04 0.04 0.03
0.02 0.03 0.03 0.03 0.03 0.03 0.03 0.03 0.03 0.03 0.03 0.02 0.02 0.02 0.02 0.03 0.03 0.03 0.03 0.04 0.03 0.03 0.03 0.03 0.03 0.03 0.03 0.03 0.03 0.03 0.03 0.02 0.02 0.02 0.03 0.04 0.04 0.04 0.03 0.03 0.03 0.03 0.03
0.02 0.02 0.02 0.02 0.03 0.04 0.04 0.04 0.04 0.04 0.04 0.04 0.03 0.03 0.03 0.03 0.03 0.03 0.03 0.04 0.04 0.03 0.03 0.03 0.03 0.03 0.04 0.04 0.03 0.03 0.02 0.02 0.02 0.02 0.02 0.03 0.03 0.03 0.03 0.03 0.04 0.04 0.05
0.03 0.02 0.02 0.02 0.02 0.03 0.03 0.04 0.04 0.04 0.04 0.04 0.04 0.04 0.04 0.04 0.04 0.04 0.03 0.03 0.03 0.04 0.04 0.03 0.02 0.02 0.02 0.02 0.03 0.03 0.02 0.02 0.02 0.02 0.03 0.03 0.03 0.03 0.04 0.04 0.04 0.03 0.03
0.03 0.03 0.03 0.02 0.02 0.02 0.02 0.03 0.04 0.04 0.04 0.04 0.04 0.04 0.04 0.04 0.03 0.03 0.03 0.02 0.02 0.02 0.03 0.02 0.01 0.01 0.01 0.02 0.02 0.02 0.02 0.02 0.02 0.02 0.02 0.03 0.03 0.03 0.03 0.03 0.03 0.03 0.02
0.04 0.03 0.03 0.02 0.02 0.02 0.02 0.02 0.03 0.04 0.04 0.04 0.04 0.04 0.03 0.03 0.03 0.03 0.02 0.02 0.02 0.03 0.03 0.02 0.02 0.01 0.01 0.01 0.02 0.02 0.02 0.02 0.02 0.02 0.02 0.02 0.03 0.03 0.03 0.03 0.03 0.02 0.02
0.04 0.04 0.03 0.02 0.02 0.02 0.02 0.02 0.02 0.03 0.03 0.03 0.03 0.03 0.03 0.03 0.03 0.03 0.03 0.03 0.03 0.03 0.03 0.02 0.02 0.02 0.02 0.02 0.01 0.01 0.01 0.01 0.01 0.01 0.02 0.02 0.02 0.02 0.02 0.02 0.02 0.02 0.02
0.05 0.05 0.04 0.03 0.03 0.03 0.03 0.03 0.03 0.02 0.02 0.03 0.03 0.03 0.03 0.03 0.03 0.03 0.03 0.03 0.03 0.03 0.03 0.03 0.03 0.02 0.02 0.02 0.01 0.01 0.01 0.01 0.01 0.01 0.01 0.02 0.02 0.02 0.02 0.02 0.01 0.01 0.01
0.04 0.04 0.04 0.04 0.04 0.03 0.04 0.04 0.04 0.03 0.03 0.03 0.03 0.03 0.02 0.02 0.02 0.02 0.02 0.02 0.03 0.03 0.03 0.03 0.03 0.02 0.02 0.02 0.02 0.01 0.01 0.01 0.01 0.01 0.01 0.01 0.02 0.02 0.02 0.02 0.01 0.02 0.02
0.05 0.05 0.05 0.04 0.04 0.04 0.04 0.04 0.04 0.04 0.04 0.04 0.03 0.03 0.03 0.02 0.02 0.02 0.02 0.02 0.02 0.02 0.02 0.02 0.02 0.02 0.02 0.02 0.02 0.01 0.01 0.01 0.01 0.01 0.01 0.01 0.01 0.02 0.02 0.02 0.02 0.02 0.01
0.05 0.05 0.05 0.05 0.05 0.05 0.05 0.04 0.04 0.03 0.03 0.03 0.03 0.03 0.03 0.03 0.03 0.03 0.03 0.03 0.03 0.02 0.02 0.02 0.02 0.02 0.02 0.02 0.01 0.01 0.01 0.01 0.01 0.01 0.01 0.01 0.02 0.02 0.02 0.02 0.01 0.02 0.01
0.05 0.05 0.05 0.05 0.05 0.05 0.05 0.04 0.03 0.03 0.03 0.03 0.04 0.04 0.03 0.03 0.02 0.03 0.03 0.03 0.02 0.02 0.02 0.02 0.02 0.02 0.02 0.02 0.02 0.02 0.02 0.01 0.01 0.01 0.01 0.01 0.01 0.02 0.02 0.02 0.01 0.01 0.02
0.04 0.04 0.04 0.04 0.04 0.04 0.04 0.03 0.03 0.03 0.03 0.03 0.03 0.03 0.03 0.02 0.02 0.02 0.02 0.02 0.02 0.02 0.02 0.02 0.01 0.01 0.02 0.02 0.02 0.02 0.02 0.02 0.02 0.02 0.02 0.02 0.02 0.01 0.01 0.02 0.02 0.02 0.02
0.04 0.04 0.04 0.04 0.03 0.03 0.03 0.03 0.03 0.02 0.02 0.02 0.02 0.02 0.02 0.02 0.02 0.02 0.02 0.02 0.02 0.02 0.02 0.02 0.01 0.01 0.01 0.01 0.01 0.02 0.02 0.02 0.02 0.01 0.01 0.02 0.02 0.01 0.01 0.02 0.02 0.02 0.02
0.03 0.04 0.04 0.04 0.03 0.03 0.02 0.02 0.02 0.01 0.01 0.01 0.02 0.01 0.02 0.01 0.01 0.01 0.01 0.01 0.01 0.01 0.01 0.01 0.01 0.01 0.01 0.01 0.01 0.01 0.02 0.02 0.02 0.02 0.02 0.02 0.01 0.01 0.01 0.02 0.02 0.02 0.02
0.04 0.03 0.03 0.03 0.03 0.02 0.02 0.02 0.02 0.01 0.01 0.01 0.01 0.01 0.01 0.01 0.01 0.01 0.01 0.01 0.01 0.01 0.01 0.01 0.01 0.01 0.01 0.01 0.01 0.01 0.01 0.01 0.01 0.02 0.02 0.02 0.01 0.01 0.01 0.01 0.01 0.02 0.02
MSLP
1021.29 1020.53 1019.74 1018.96 1018.21 1017.54 1016.97 1016.54 1016.26 1016.16 1016.20 1016.37 1016.63 1016.94 1017.24 1017.50 1017.68 1017.79 1017.80 1017.72 1017.58 1017.40 1017.19 1016.98 1016.78 1016.61 1016.48 1016.40 1016.37 1016.39 1016.47 1016.60 1016.76 1016.95 1017.15 1017.32 1017.45 1017.52 1017.51 1017.41 1017.24 1017.01 1016.75
1021.68 1020.90 1020.09 1019.26 1018.44 1017.68 1017.01 1016.48 1016.10 1015.89 1015.84 1015.93 1016.14 1016.41 1016.71 1016.99 1017.22 1017.38 1017.45 1017.44 1017.35 1017.21 1017.02 1016.82 1016.63 1016.45 1016.31 1016.22 1016.18 1016.21 1016.30 1016.45 1016.63 1016.85 1017.08 1017.28 1017.45 1017.56 1017.61 1017.58 1017.48 1017.35 1017.19
1022.08 1021.29 1020.45 1019.58 1018.72 1017.90 1017.15 1016.53 1016.05 1015.74 1015.59 1015.59 1015.73 1015.95 1016.22 1016.50 1016.75 1016.95 1017.08 1017.13 1017.10 1017.01 1016.86 1016.69 1016.50 1016.32 1016.18 1016.07 1016.03 1016.05 1016.14 1016.30 1016.50 1016.74 1017.00 1017.24 1017.45 1017.62 1017.73 1017.78 1017.79 1017.76 1017.73
1022.47 1021.65 1020.78 1019.89 1018.99 1018.13 1017.34 1016.65 1016.09 1015.69 1015.44 1015.35 1015.40 1015.56 1015.78 1016.04 1016.30 1016.53 1016.71 1016.82 1016.85 1016.82 1016.72 1016.58 1016.41 1016.23 1016.08 1015.96 1015.90 1015.91 1015.99 1016.14 1016.35 1016.61 1016.89 1017.17 1017.43 1017.65 1017.84 1017.99 1018.10 1018.19 1018.28
1022.79 1021.94 1021.04 1020.13 1019.21 1018.32 1017.50 1016.76 1016.15 1015.67 1015.35 1015.18 1015.15 1015.23 1015.41 1015.64 1015.89 1016.14 1016.35 1016.52 1016.61 1016.63 1016.59 1016.48 1016.34 1016.17 1016.01 1015.88 1015.80 1015.78 1015.85 1015.99 1016.19 1016.46 1016.75 1017.06 1017.37 1017.65 1017.91 1018.15 1018.36 1018.57 1018.78
1023.02 1022.12 1021.19 1020.26 1019.33 1018.42 1017.58 1016.82 1016.17 1015.64 1015.25 1015.01 1014.90 1014.92 1015.04 1015.23 1015.47 1015.73 1015.98 1016.19 1016.34 1016.42 1016.43 1016.38 1016.26 1016.12 1015.96 1015.82 1015.72 1015.69 1015.73 1015.85 1016.05 1016.30 1016.61 1016.94 1017.28 1017.61 1017.94 1018.25 1018.56 1018.86 1019.18
1023.14 1022.19 1021.22 1020.26 1019.32 1018.41 1017.56 1016.78 1016.10 1015.54 1015.10 1014.79 1014.62 1014.57 1014.62 1014.78 1014.99 1015.25 1015.52 1015.78 1015.98 1016.13 1016.21 1016.21 1016.15 1016.04 1015.91 1015.78 1015.68 1015.63 1015.66 1015.77 1015.95 1016.20 1016.50 1016.84 1017.20 1017.57 1017.94 1018.32 1018.69 1019.07 1019.46
1023.15 1022.15 1021.15 1020.17 1019.21 1018.30 1017.44 1016.65 1015.95 1015.35 1014.86 1014.49 1014.24 1014.12 1014.11 1014.21 1014.40 1014.65 1014.93 1015.22 1015.48 1015.70 1015.86 1015.94 1015.95 1015.90 1015.82 1015.73 1015.66 1015.63 1015.66 1015.77 1015.94 1016.19 1016.49 1016.83 1017.20 1017.58 1017.98 1018.38 1018.79 1019.22 1019.66
1023.11 1022.07 1021.04 1020.03 1019.06 1018.13 1017.26 1016.45 1015.72 1015.08 1014.53 1014.09 1013.77 1013.57 1013.49 1013.52 1013.66 1013.88 1014.17 1014.49 1014.81 1015.10 1015.34 1015.52 1015.63 1015.68 1015.69 1015.67 1015.66 1015.68 1015.74 1015.87 1016.06 1016.31 1016.61 1016.95 1017.32 1017.70 1018.10 1018.51 1018.94 1019.38 1019.83
1023.09 1022.02 1020.97 1019.94 1018.95 1018.00 1017.11 1016.27 1015.50 1014.81 1014.19 1013.67 1013.25 1012.95 1012.78 1012.73 1012.81 1012.99 1013.26 1013.59 1013.96 1014.33 1014.66 1014.95 1015.18 1015.36 1015.48 1015.58 1015.66 1015.76 1015.89 1016.06 1016.29 1016.56 1016.87 1017.22 1017.58 1017.96 1018.35 1018.75 1019.16 1019.59 1020.04
1023.16 1022.08 1021.02 1019.97 1018.96 1017.99 1017.07 1016.19 1015.37 1014.61 1013.91 1013.30 1012.78 1012.37 1012.09 1011.94 1011.93 1012.05 1012.29 1012.62 1013.02 1013.44 1013.87 1014.27 1014.63 1014.94 1015.20 1015.43 1015.64 1015.85 1016.07 1016.32 1016.60 1016.91 1017.26 1017.61 1017.98 1018.35 1018.73 1019.11 1019.50 1019.90 1020.32
1023.37 1022.31 1021.24 1020.19 1019.16 1018.17 1017.21 1016.29 1015.41 1014.58 1013.79 1013.08 1012.45 1011.92 1011.52 1011.26 1011.15 1011.20 1011.38 1011.69 1012.09 1012.55 1013.05 1013.54 1014.02 1014.46 1014.86 1015.23 1015.57 1015.91 1016.24 1016.59 1016.95 1017.32 1017.70 1018.09 1018.48 1018.86 1019.22 1019.59 1019.95 1020.33 1020.71
1023.75 1022.70 1021.65 1020.60 1019.57 1018.56 1017.57 1016.61 1015.68 1014.78 1013.92 1013.11 1012.38 1011.74 1011.22 1010.85 1010.63 1010.57 1010.68 1010.94 1011.32 1011.79 1012.32 1012.88 1013.45 1013.99 1014.51 1015.00 1015.47 1015.92 1016.37 1016.81 1017.26 1017.71 1018.15 1018.58 1019.00 1019.40 1019.78 1020.14 1020.48 1020.83 1021.19
1024.25 1023.24 1022.21 1021.17 1020.15 1019.14 1018.14 1017.17 1016.20 1015.26 1014.34 1013.46 1012.64 1011.90 1011.28 1010.79 1010.47 1010.31 1010.33 1010.52 1010.85 1011.29 1011.82 1012.40 1013.01 1013.61 1014.21 1014.79 1015.35 1015.90 1016.43 1016.97 1017.50 1018.02 1018.53 1019.02 1019.48 1019.92 1020.32 1020.69 1021.04 1021.38 1021.72
1024.81 1023.84 1022.84 1021.84 1020.84 1019.85 1018.87 1017.90 1016.93 1015.97 1015.03 1014.11 1013.24 1012.44 1011.74 1011.17 1010.75 1010.50 1010.43 1010.52 1010.78 1011.16 1011.64 1012.20 1012.79 1013.41 1014.03 1014.65 1015.26 1015.86 1016.46 1017.05 1017.64 1018.22 1018.80 1019.35 1019.87 1020.35 1020.79 1021.20 1021.57 1021.92 1022.25
1025.33 1024.41 1023.46 1022.51 1021.55 1020.61 1019.67 1018.74 1017.80 1016.87 1015.94 1015.02 1014.14 1013.31 1012.58 1011.95 1011.47 1011.15 1010.99 1011.00 1011.16 1011.46 1011.86 1012.35 1012.89 1013.46 1014.06 1014.65 1015.26 1015.86 1016.47 1017.09 1017.71 1018.34 1018.95 1019.55 1020.13 1020.67 1021.16 1021.61 1022.02 1022.39 1022.73
1025.74 1024.87 1023.98 1023.09 1022.20 1021.33 1020.46 1019.59 1018.72 1017.85 1016.97 1016.10 1015.24 1014.44 1013.70 1013.07 1012.55 1012.18 1011.95 1011.89 1011.96 1012.17 1012.48 1012.87 1013.32 1013.81 1014.32 1014.86 1015.40 1015.97 1016.55 1017.15 1017.76 1018.40 1019.03 1019.67 1020.28 1020.87 1021.41 1021.91 1022.36 1022.77 1023.13
1026.00 1025.18 1024.36 1023.55 1022.74 1021.95 1021.17 1020.39 1019.61 1018.82 1018.02 1017.23 1016.44 1015.69 1015.00 1014.38 1013.87 1013.48 1013.22 1013.10 1013.10 1013.22 1013.43 1013.72 1014.06 1014.44 1014.85 1015.29 1015.74 1016.23 1016.74 1017.28 1017.86 1018.46 1019.10 1019.73 1020.37 1020.98 1021.57 1022.10 1022.60 1023.04 1023.43
1026.11 1025.36 1024.61 1023.88 1023.17 1022.47 1021.79 1021.11 1020.42 1019.73 1019.04 1018.33 1017.64 1016.97 1016.34 1015.78 1015.30 1014.93 1014.66 1014.51 1014.46 1014.51 1014.64 1014.83 1015.06 1015.33 1015.63 1015.95 1016.29 1016.67 1017.08 1017.54 1018.05 1018.60 1019.18 1019.80 1020.42 1021.04 1021.64 1022.21 1022.73 1023.20 1023.62
1026.13 1025.45 1024.78 1024.13 1023.51 1022.91 1022.32 1021.73 1021.15 1020.56 1019.96 1019.35 1018.75 1018.17 1017.63 1017.14 1016.72 1016.38 1016.14 1015.98 1015.91 1015.91 1015.98 1016.09 1016.23 1016.40 1016.58 1016.79 1017.02 1017.28 1017.58 1017.94 1018.35 1018.82 1019.34 1019.90 1020.49 1021.08 1021.67 1022.25 1022.78 1023.27 1023.72
1026.12 1025.51 1024.93 1024.36 1023.82 1023.30 1022.80 1022.30 1021.79 1021.29 1020.78 1020.26 1019.75 1019.26 1018.81 1018.40 1018.05 1017.76 1017.55 1017.41 1017.34 1017.32 1017.34 1017.39 1017.46 1017.54 1017.63 1017.73 1017.85 1018.01 1018.20 1018.45 1018.76 1019.13 1019.56 1020.04 1020.57 1021.12 1021.68 1022.23 1022.77 1023.26 1023.72
1026.14 1025.61 1025.10 1024.62 1024.15 1023.70 1023.26 1022.82 1022.38 1021.94 1021.50 1021.07 1020.64 1020.23 1019.85 1019.52 1019.23 1019.01 1018.84 1018.72 1018.66 1018.63 1018.62 1018.63 1018.65 1018.66 1018.67 1018.69 1018.72 1018.77 1018.87 1019.01 1019.22 1019.49 1019.82 1020.22 1020.68 1021.16 1021.67 1022.19 1022.70 1023.19 1023.65
1026.23 1025.77 1025.34 1024.91 1024.50 1024.10 1023.71 1023.32 1022.93 1022.55 1022.16 1021.78 1021.42 1021.08 1020.77 1020.50 1020.27 1020.09 1019.96 1019.87 1019.81 1019.78 1019.75 1019.73 1019.70 1019.66 1019.61 1019.56 1019.52 1019.49 1019.50 1019.55 1019.67 1019.85 1020.09 1020.41 1020.78 1021.20 1021.65 1022.13 1022.60 1023.07 1023.52
1026.37 1025.97 1025.59 1025.22 1024.86 1024.50 1024.14 1023.79 1023.43 1023.09 1022.74 1022.42 1022.11 1021.82 1021.56 1021.35 1021.17 1021.02 1020.91 1020.84 1020.78 1020.73 1020.68 1020.63 1020.56 1020.47 1020.37 1020.26 1020.16 1020.07 1020.02 1020.00 1020.05 1020.15 1020.32 1020.56 1020.86 1021.22 1021.62 1022.04 1022.48 1022.93 1023.36
1026.49 1026.15 1025.81 1025.48 1025.15 1024.82 1024.50 1024.17 1023.86 1023.54 1023.25 1022.96 1022.70 1022.46 1022.25 1022.07 1021.92 1021.80 1021.70 1021.62 1021.55 1021.47 1021.39 1021.30 1021.18 1021.05 1020.90 1020.75 1020.61 1020.47 1020.37 1020.31 1020.30 1020.36 1020.48 1020.66 1020.91 1021.21 1021.56 1021.95 1022.35 1022.77 1023.19
1026.53 1026.22 1025.91 1025.61 1025.31 1025.01 1024.72 1024.43 1024.15 1023.88 1023.63 1023.40 1023.18 1022.99 1022.82 1022.67 1022.54 1022.42 1022.32 1022.22 1022.11 1022.00 1021.87 1021.73 1021.57 1021.39 1021.20 1021.01 1020.83 1020.67 1020.54 1020.45 1020.42 1020.45 1020.54 1020.69 1020.91 1021.18 1021.49 1021.85 1022.22 1022.62 1023.01
Thickness
5499 5500 5502 5503 5505 5506 5507 5509 5510 5512 5513 5513 5514 5514 5515 5515 5515 5516 5517 5517 5517 5517 5517 5516 5515 5514 5513 5512 5511 5509 5508 5507 5506 5506 5504 5505 5505 5506 5506 5506 5506 5506 5506
5488 5489 5491 5492 5494 5496 5498 5499 5501 5502 5504 5505 5505 5505 5506 5506 5506 5506 5507 5508 5507 5507 5507 5507 5506 5505 5504 5503 5502 5501 5500 5499 5497 5496 5495 5494 5494 5495 5495 5495 5495 5495 5496
5476 5478 5480 5482 5484 5486 5488 5490 5492 5493 5494 5495 5496 5496 5496 5497 5497 5497 5498 5498 5498 5498 5498 5498 5497 5496 5495 5494 5493 5493 5491 5490 5489 5487 5486 5484 5483 5483 5483 5483 5483 5483 5484
5465 5467 5469 5471 5473 5476 5478 5480 5482 5483 5484 5485 5486 5487 5487 5488 5488 5488 5488 5488 5488 5488 5488 5489 5488 5488 5487 5486 5485 5484 5482 5481 5479 5478 5476 5474 5473 5472 5472 5472 5472 5472 5472
5453 5455 5458 5460 5463 5465 5468 5470 5472 5473 5474 5475 5475 5476 5477 5478 5479 5479 5479 5479 5479 5479 5479 5479 5479 5479 5479 5478 5477 5476 5474 5472 5470 5469 5467 5466 5464 5463 5463 5462 5462 5461 5461
5441 5443 5446 5449 5452 5454 5457 5459 5460 5461 5463 5464 5464 5465 5467 5468 5470 5470 5470 5470 5470 5470 5470 5470 5470 5470 5469 5469 5469 5468 5467 5465 5463 5461 5460 5459 5458 5456 5454 5453 5451 5450 5450
5429 5432 5434 5437 5440 5443 5446 5447 5449 5450 5451 5452 5453 5454 5456 5458 5459 5460 5461 5460 5460 5461 5461 5461 5461 5461 5460 5459 5459 5458 5457 5457 5457 5456 5454 5453 5451 5450 5447 5444 5442 5441 5442
5417 5420 5422 5425 5428 5431 5434 5436 5438 5439 5440 5441 5442 5444 5445 5447 5449 5450 5451 5450 5450 5451 5451 5451 5451 5450 5450 5449 5449 5447 5447 5446 5446 5446 5446 5446 5444 5442 5439 5437 5434 5431 5430
5405 5408 5411 5414 5417 5420 5422 5425 5426 5427 5429 5430 5431 5433 5434 5436 5438 5439 5440 5440 5440 5440 5440 5441 5441 5440 5441 5440 5439 5437 5436 5436 5436 5436 5436 5435 5434 5432 5429 5426 5423 5421 5420
5394 5397 5400 5402 5405 5409 5411 5414 5415 5417 5418 5419 5420 5422 5424 5426 5429 5430 5430 5430 5430 5430 5430 5430 5430 5430 5430 5430 5428 5427 5426 5425 5425 5425 5424 5423 5422 5420 5418 5417 5414 5412 5410
5383 5386 5389 5391 5394 5397 5400 5402 5404 5405 5407 5408 5409 5411 5413 5416 5419 5420 5421 5420 5420 5420 5420 5420 5419 5420 5420 5419 5418 5418 5417 5416 5415 5413 5411 5410 5409 5408 5406 5405 5403 5402 5400
5373 5375 5377 5380 5384 5387 5389 5391 5393 5394 5395 5397 5399 5400 5403 5405 5408 5410 5411 5412 5412 5411 5410 5410 5409 5409 5409 5408 5407 5407 5407 5405 5403 5401 5400 5398 5397 5395 5394 5393 5392 5391 5389
5362 5364 5367 5370 5373 5376 5378 5380 5382 5383 5384 5386 5388 5390 5392 5394 5397 5399 5401 5402 5402 5401 5400 5400 5399 5398 5397 5396 5396 5396 5395 5393 5392 5390 5388 5386 5385 5384 5383 5382 5380 5378 5377
5351 5354 5356 5359 5362 5365 5368 5370 5372 5373 5375 5377 5379 5381 5382 5384 5386 5388 5389 5390 5390 5389 5389 5388 5388 5387 5385 5384 5384 5383 5382 5381 5380 5378 5376 5375 5373 5372 5371 5370 5368 5366 5365
5340 5343 5346 5349 5352 5355 5358 5360 5363 5365 5367 5369 5371 5372 5374 5375 5377 5379 5379 5379 5379 5379 5378 5377 5375 5374 5373 5371 5371 5370 5369 5368 5367 5366 5365 5364 5363 5362 5360 5358 5357 5356 5354
5330 5333 5336 5339 5342 5345 5347 5350 5353 5356 5359 5362 5363 5364 5365 5367 5369 5370 5370 5370 5370 5369 5368 5365 5364 5362 5361 5360 5359 5358 5357 5356 5355 5355 5354 5353 5352 5351 5349 5347 5346 5345 5343
5319 5322 5325 5329 5332 5335 5338 5340 5343 5346 5349 5351 5353 5355 5356 5357 5358 5359 5359 5359 5358 5358 5355 5353 5352 5350 5350 5349 5348 5347 5346 5346 5345 5344 5343 5342 5341 5339 5338 5337 5336 5334 5332
5308 5312 5316 5319 5322 5325 5328 5330 5332 5335 5337 5338 5341 5343 5345 5346 5347 5347 5348 5347 5345 5344 5343 5342 5341 5340 5339 5338 5338 5337 5336 5335 5335 5334 5333 5331 5330 5329 5327 5326 5325 5323 5322
5298 5301 5305 5308 5312 5314 5317 5319 5321 5323 5325 5327 5328 5330 5332 5334 5335 5335 5336 5335 5334 5332 5331 5330 5330 5329 5328 5328 5327 5327 5326 5326 5325 5324 5323 5321 5319 5318 5317 5316 5314 5314 5312
5287 5291 5294 5298 5301 5304 5306 5308 5310 5311 5313 5315 5316 5318 5320 5321 5322 5322 5322 5322 5322 5321 5321 5320 5319 5319 5318 5318 5317 5316 5316 5315 5314 5313 5312 5310 5309 5308 5306 5305 5305 5303 5302
5277 5280 5284 5287 5289 5292 5295 5297 5299 5300 5302 5304 5305 5307 5310 5310 5310 5310 5310 5311 5311 5311 5311 5310 5310 5309 5308 5307 5307 5306 5305 5305 5303 5302 5301 5300 5299 5298 5297 5296 5295 5294 5292
5267 5270 5272 5275 5277 5280 5283 5285 5287 5289 5291 5292 5294 5296 5299 5299 5299 5299 5300 5300 5300 5300 5300 5300 5299 5299 5298 5297 5297 5296 5296 5295 5294 5293 5292 5291 5290 5289 5288 5287 5286 5285 5283
5257 5259 5262 5264 5266 5269 5271 5273 5275 5277 5279 5281 5283 5285 5286 5287 5287 5288 5288 5288 5289 5289 5290 5290 5289 5288 5288 5287 5287 5287 5287 5286 5285 5284 5283 5282 5281 5280 5279 5278 5277 5276 5275
5247 5249 5251 5253 5255 5258 5259 5261 5264 5266 5268 5270 5272 5273 5275 5276 5276 5276 5277 5277 5278 5279 5279 5279 5279 5278 5278 5278 5278 5278 5278 5278 5277 5276 5275 5275 5273 5272 5271 5270 5269 5268 5267
5237 5239 5242 5243 5245 5247 5249 5251 5253 5255 5257 5259 5261 5262 5264 5265 5265 5266 5266 5267 5268 5268 5269 5269 5269 5269 5269 5269 5269 5269 5269 5269 5269 5269 5268 5267 5266 5265 5263 5262 5261 5259 5258
5227 5229 5231 5233 5235 5237 5239 5241 5243 5245 5247 5248 5250 5251 5252 5253 5254 5255 5256 5257 5258 5259 5259 5259 5259 5260 5260 5260 5261 5261 5261 5261 5261 5261 5260 5260 5259 5257 5256 5254 5253 5252 5250